• In Hungary
  • List of Countries
  • For 7 days
  • Water Temperature
  • Satellite Maps
  • Weather Map
  • News
  • Weather Widgets
  • user-avatar
    Login

    Hourly Weather Mingachevir

    Today, 20 January, Saturday

    Time Temperature Precipitation Wind Pressure Humidity
    00:00 +8°C° 0 mm 2 mps 749 mmHg 57%
    01:00 +8°C° 0 mm 2 mps 750 mmHg 58%
    02:00 +8°C° 0 mm 2 mps 750 mmHg 59%
    03:00 +8°C° 0 mm 2 mps 751 mmHg 60%
    04:00 +8°C° 0.1 mm 2 mps 751 mmHg 61%
    05:00 +8°C° 0.1 mm 2 mps 751 mmHg 63%
    06:00 +8°C° 0.1 mm 2 mps 752 mmHg 65%
    07:00 +8°C° 0.1 mm 2 mps 752 mmHg 65%
    08:00 +9°C° 0.1 mm 1 mps 753 mmHg 65%
    09:00 +10°C° 0.1 mm 1 mps 754 mmHg 65%
    10:00 +11°C° 0 mm 1 mps 754 mmHg 61%
    11:00 +12°C° 0 mm 2 mps 754 mmHg 57%
    12:00 +12°C° 0 mm 2 mps 754 mmHg 53%
    13:00 +13°C° 0 mm 2 mps 754 mmHg 53%
    14:00 +13°C° 0 mm 2 mps 755 mmHg 53%
    15:00 +13°C° 0 mm 2 mps 755 mmHg 53%
    16:00 +12°C° 0 mm 2 mps 755 mmHg 58%
    17:00 +10°C° 0 mm 2 mps 756 mmHg 64%
    18:00 +9°C° 0 mm 2 mps 756 mmHg 70%
    19:00 +8°C° 0 mm 2 mps 757 mmHg 71%
    20:00 +8°C° 0 mm 2 mps 757 mmHg 73%
    21:00 +7°C° 0 mm 2 mps 757 mmHg 74%
    22:00 +8°C° 0 mm 1 mps 757 mmHg 75%
    23:00 +8°C° 0 mm 1 mps 757 mmHg 76%

    Tomorrow, 21 January, Sunday

    Time Temperature Precipitation Wind Pressure Humidity
    00:00 +7°C° 0 mm 1 mps 757 mmHg 77%
    01:00 +7°C° 0 mm 1 mps 757 mmHg 77%
    02:00 +7°C° 0 mm 1 mps 757 mmHg 76%
    03:00 +7°C° 0 mm 1 mps 757 mmHg 76%
    04:00 +6°C° 0 mm 1 mps 757 mmHg 75%
    05:00 +6°C° 0 mm 1 mps 757 mmHg 73%
    06:00 +5°C° 0 mm 2 mps 757 mmHg 71%
    07:00 +7°C° 0 mm 1 mps 757 mmHg 67%
    08:00 +8°C° 0 mm 1 mps 756 mmHg 63%
    09:00 +9°C° 0 mm 1 mps 756 mmHg 58%
    10:00 +9°C° 0 mm 2 mps 756 mmHg 53%
    11:00 +10°C° 0 mm 2 mps 755 mmHg 48%
    12:00 +13°C° 0 mm 2 mps 754 mmHg 43%
    13:00 +13°C° 0 mm 2 mps 754 mmHg 42%
    14:00 +13°C° 0 mm 3 mps 754 mmHg 40%
    15:00 +13°C° 0 mm 3 mps 753 mmHg 39%
    16:00 +12°C° 0 mm 3 mps 754 mmHg 42%
    17:00 +11°C° 0 mm 3 mps 754 mmHg 45%
    18:00 +10°C° 0 mm 3 mps 755 mmHg 49%
    19:00 +10°C° 0 mm 3 mps 754 mmHg 47%
    20:00 +10°C° 0 mm 3 mps 754 mmHg 46%
    21:00 +9°C° 0 mm 3 mps 754 mmHg 45%
    22:00 +9°C° 0 mm 3 mps 754 mmHg 44%
    23:00 +9°C° 0 mm 3 mps 754 mmHg 43%

    Day after tomorrow, 22 January, Monday

    Time Temperature Precipitation Wind Pressure Humidity
    00:00 +9°C° 0 mm 3 mps 754 mmHg 42%
    01:00 +8°C° 0 mm 2 mps 754 mmHg 41%
    02:00 +8°C° 0 mm 2 mps 754 mmHg 41%
    03:00 +8°C° 0 mm 2 mps 754 mmHg 40%
    04:00 +9°C° 0 mm 1 mps 753 mmHg 41%
    05:00 +8°C° 0 mm 1 mps 753 mmHg 41%
    06:00 +7°C° 0 mm 0 mps 753 mmHg 41%
    07:00 +9°C° 0 mm 1 mps 752 mmHg 41%
    08:00 +10°C° 0 mm 1 mps 752 mmHg 40%
    09:00 +10°C° 0 mm 1 mps 752 mmHg 40%
    10:00 +11°C° 0 mm 1 mps 751 mmHg 38%
    11:00 +12°C° 0 mm 1 mps 750 mmHg 36%
    12:00 +13°C° 0 mm 1 mps 750 mmHg 34%
    13:00 +13°C° 0 mm 1 mps 749 mmHg 34%
    14:00 +13°C° 0 mm 1 mps 749 mmHg 35%
    15:00 +13°C° 0 mm 1 mps 748 mmHg 35%
    16:00 +12°C° 0 mm 1 mps 748 mmHg 38%
    17:00 +11°C° 0 mm 1 mps 748 mmHg 41%
    18:00 +11°C° 0 mm 1 mps 748 mmHg 43%
    19:00 +9°C° 0 mm 2 mps 748 mmHg 43%
    20:00 +9°C° 0 mm 2 mps 748 mmHg 42%
    21:00 +9°C° 0 mm 2 mps 748 mmHg 41%
    22:00 +8°C° 0 mm 2 mps 748 mmHg 40%
    23:00 +8°C° 0 mm 3 mps 747 mmHg 39%

    23 January, Tuesday

    Time Temperature Precipitation Wind Pressure Humidity
    00:00 +8°C° 0 mm 3 mps 747 mmHg 37%
    01:00 +8°C° 0 mm 3 mps 747 mmHg 36%
    02:00 +8°C° 0 mm 3 mps 747 mmHg 34%
    03:00 +7°C° 0 mm 4 mps 747 mmHg 32%
    04:00 +7°C° 0 mm 4 mps 747 mmHg 31%
    05:00 +7°C° 0 mm 4 mps 747 mmHg 30%
    06:00 +7°C° 0 mm 4 mps 747 mmHg 29%
    07:00 +8°C° 0 mm 4 mps 747 mmHg 29%
    08:00 +10°C° 0 mm 4 mps 747 mmHg 29%
    09:00 +11°C° 0 mm 4 mps 748 mmHg 28%
    10:00 +12°C° 0 mm 4 mps 747 mmHg 26%
    11:00 +13°C° 0 mm 5 mps 747 mmHg 24%
    12:00 +15°C° 0 mm 5 mps 747 mmHg 22%
    13:00 +15°C° 0 mm 5 mps 746 mmHg 22%
    14:00 +15°C° 0 mm 4 mps 746 mmHg 23%
    15:00 +15°C° 0 mm 4 mps 746 mmHg 24%
    16:00 +14°C° 0 mm 4 mps 747 mmHg 27%
    17:00 +13°C° 0 mm 4 mps 747 mmHg 29%
    18:00 +12°C° 0 mm 3 mps 747 mmHg 32%
    19:00 +11°C° 0 mm 3 mps 748 mmHg 33%
    20:00 +11°C° 0 mm 3 mps 748 mmHg 34%
    21:00 +11°C° 0 mm 3 mps 748 mmHg 36%
    22:00 +11°C° 0 mm 3 mps 748 mmHg 37%
    23:00 +10°C° 0 mm 2 mps 748 mmHg 38%

    24 January, Wednesday

    Time Temperature Precipitation Wind Pressure Humidity
    00:00 +10°C° 0 mm 2 mps 748 mmHg 39%
    01:00 +10°C° 0 mm 2 mps 748 mmHg 41%
    02:00 +10°C° 0 mm 2 mps 749 mmHg 43%
    03:00 +9°C° 0 mm 2 mps 749 mmHg 45%
    04:00 +9°C° 0 mm 2 mps 749 mmHg 47%
    05:00 +9°C° 0 mm 2 mps 749 mmHg 49%
    06:00 +8°C° 0 mm 2 mps 750 mmHg 51%
    07:00 +9°C° 0 mm 2 mps 750 mmHg 51%
    08:00 +9°C° 0 mm 2 mps 751 mmHg 51%
    09:00 +9°C° 0 mm 2 mps 751 mmHg 51%
    10:00 +10°C° 0 mm 2 mps 751 mmHg 48%
    11:00 +12°C° 0 mm 2 mps 751 mmHg 46%
    12:00 +12°C° 0 mm 3 mps 751 mmHg 43%
    13:00 +12°C° 0.1 mm 3 mps 751 mmHg 44%
    14:00 +12°C° 0.1 mm 3 mps 751 mmHg 45%
    15:00 +12°C° 0.1 mm 4 mps 751 mmHg 45%
    16:00 +11°C° 0 mm 3 mps 752 mmHg 48%
    17:00 +11°C° 0 mm 3 mps 753 mmHg 51%
    18:00 +10°C° 0 mm 2 mps 753 mmHg 54%
    19:00 +9°C° 0 mm 2 mps 754 mmHg 55%
    20:00 +9°C° 0 mm 2 mps 754 mmHg 56%
    21:00 +9°C° 0 mm 2 mps 755 mmHg 57%
    22:00 +8°C° 0 mm 2 mps 755 mmHg 59%
    23:00 +8°C° 0 mm 2 mps 756 mmHg 61%

    25 January, Thursday

    Time Temperature Precipitation Wind Pressure Humidity
    00:00 +7°C° 0 mm 2 mps 756 mmHg 63%
    01:00 +8°C° 0 mm 1 mps 756 mmHg 66%
    02:00 +7°C° 0 mm 1 mps 757 mmHg 68%
    03:00 +7°C° 0 mm 1 mps 757 mmHg 70%
    04:00 +6°C° 0 mm 1 mps 757 mmHg 72%
    05:00 +6°C° 0 mm 1 mps 758 mmHg 74%
    06:00 +6°C° 0 mm 1 mps 758 mmHg 77%
    07:00 +6°C° 0 mm 1 mps 759 mmHg 76%
    08:00 +7°C° 0 mm 1 mps 759 mmHg 75%
    09:00 +7°C° 0 mm 1 mps 760 mmHg 74%
    10:00 +8°C° 0 mm 1 mps 760 mmHg 70%
    11:00 +7°C° 0 mm 2 mps 760 mmHg 67%
    12:00 +8°C° 0 mm 2 mps 760 mmHg 63%
    13:00 +8°C° 0.1 mm 2 mps 760 mmHg 63%
    14:00 +8°C° 0.1 mm 2 mps 760 mmHg 63%
    15:00 +8°C° 0.1 mm 2 mps 760 mmHg 62%
    16:00 +8°C° 0.1 mm 2 mps 760 mmHg 66%
    17:00 +7°C° 0.1 mm 2 mps 760 mmHg 70%
    18:00 +7°C° 0.1 mm 3 mps 761 mmHg 74%
    19:00 +5°C° 0.2 mm 3 mps 761 mmHg 75%
    20:00 +5°C° 0.2 mm 3 mps 761 mmHg 76%
    21:00 +4°C° 0.2 mm 4 mps 762 mmHg 77%
    22:00 +4°C° 0.1 mm 3 mps 762 mmHg 77%
    23:00 +4°C° 0.1 mm 3 mps 762 mmHg 78%
    Show more